Powrót do katalogu

THOR ABLESTAR DEB

AktywnyLEO
NORAD 548·DEBRIS·🇺🇸 United States

Wystrzelony Jun 29, 1961 z Cape Canaveral Space Force Station

Loading…

Następne Przeloty (najbliższe 24 godziny)

TLE

ŚwieżeSource: Space-Track

Epoka: Sep 14, 2026, 10:08 UTC

1 00548U 61015GH  26257.42250704  .00001254  00000-0  18538-3 0  9996
2 00548  66.6682  54.7135 0089722  43.3013 317.5114 14.76400970416999

Śledź THOR ABLESTAR DEB w czasie rzeczywistym z AllMySat

Download on the App Store